F1IQH-13 Weather Reports


time (UTC)temp
F
wind
direction
speed
knots
gust
knots
rain 1hr
in
rain 24hr
in
rain mn
in
humidity
%
barometer
mb
20260902123333 80 257 5.2 8.7 0.00 0.00 0.00 46 1021.2
20260902122334 80 266 5.2 8.7 0.00 0.00 0.00 47 1021.2
20260902121333 79 272 5.2 8.7 0.00 0.00 0.00 48 1021.3
20260902120333 79 272 5.2 8.7 0.00 0.00 0.00 48 1021.3
20260902115334 78 272 4.3 7.8 0.00 0.00 0.00 49 1021.4
20260902114334 78 270 4.3 7.8 0.00 0.00 0.00 50 1021.5
20260902113332 78 270 4.3 7.8 0.00 0.00 0.00 50 1021.5
20260902112333 77 263 3.5 7.0 0.00 0.00 0.00 52 1021.6
20260902111334 77 258 2.6 6.1 0.00 0.00 0.00 53 1021.7
20260902110333 77 258 2.6 6.1 0.00 0.00 0.00 53 1021.7
20260902105334 76 250 2.6 5.2 0.00 0.00 0.00 54 1021.8
20260902104333 75 234 1.7 4.3 0.00 0.00 0.00 56 1022.0
20260902103334 75 234 1.7 4.3 0.00 0.00 0.00 56 1022.0
20260902102333 74 241 1.7 4.3 0.00 0.00 0.00 59 1021.8
20260902101333 73 238 1.7 4.3 0.00 0.00 0.00 61 1021.9
20260902100333 73 238 1.7 4.3 0.00 0.00 0.00 61 1021.9
20260902095333 72 236 1.7 4.3 0.00 0.00 0.00 63 1022.0
20260902094333 71 248 0.9 3.5 0.00 0.00 0.00 66 1022.1
20260902093333 71 248 0.9 3.5 0.00 0.00 0.00 66 1022.1
20260902092333 70 270 0.9 3.5 0.00 0.00 0.00 69 1022.2
20260902091332 69 297 0.0 3.5 0.00 0.00 0.00 71 1022.3
20260902090332 69 297 0.0 3.5 0.00 0.00 0.00 71 1022.3
20260902085334 67 315 0.0 3.5 0.00 0.00 0.00 73 1022.3
20260902084333 66 270 0.0 3.5 0.00 0.00 0.00 75 1022.2
20260902083333 66 270 0.0 3.5 0.00 0.00 0.00 75 1022.2
20260902082333 65 225 0.9 2.6 0.00 0.00 0.00 76 1022.3
20260902081334 64 214 0.9 2.6 0.00 0.00 0.00 78 1022.2
20260902080334 64 214 0.9 2.6 0.00 0.00 0.00 78 1022.2
20260902075334 62 198 0.9 2.6 0.00 0.00 0.00 80 1022.2
20260902074333 61 162 0.9 2.6 0.00 0.00 0.00 83 1022.2
20260902073333 61 162 0.9 2.6 0.00 0.00 0.00 83 1022.2
20260902072333 59 124 0.9 3.5 0.00 0.00 0.00 86 1022.1
20260902071333 58 101 0.9 3.5 0.00 0.00 0.00 88 1022.1
20260902070334 58 101 0.9 3.5 0.00 0.00 0.00 88 1022.1
20260902065333 56 81 0.9 3.5 0.00 0.00 0.00 90 1022.0
20260902064332 55 69 1.7 3.5 0.00 0.00 0.00 92 1022.0
20260902063333 55 69 1.7 3.5 0.00 0.00 0.00 92 1022.0
20260902062332 54 61 1.7 3.5 0.00 0.00 0.00 94 1021.9
20260902061332 53 59 2.6 3.5 0.00 0.00 0.00 96 1021.8
20260902060333 53 59 2.6 3.5 0.00 0.00 0.00 96 1021.8
20260902055333 52 66 2.6 3.5 0.00 0.00 0.00 97 1021.7
20260902054333 52 76 2.6 4.3 0.00 0.00 0.00 98 1021.5
20260902053332 52 76 2.6 4.3 0.00 0.00 0.00 98 1021.5
20260902052332 51 86 2.6 4.3 0.00 0.00 0.00 99 1021.3
20260902051333 51 94 2.6 4.3 0.00 0.00 0.00 99 1021.2
20260902050333 51 94 2.6 4.3 0.00 0.00 0.00 99 1021.2
20260902045333 51 99 2.6 3.5 0.00 0.00 0.00 100 1021.2
20260902044334 51 100 1.7 3.5 0.00 0.00 0.00 99 1021.5
20260902043333 51 100 1.7 3.5 0.00 0.00 0.00 99 1021.5
20260902042334 51 101 1.7 2.6 0.00 0.00 0.00 99 1021.6
20260902041334 52 96 1.7 2.6 0.00 0.00 0.00 98 1021.6
20260902040333 52 96 1.7 2.6 0.00 0.00 0.00 98 1021.6
20260902035333 52 90 1.7 2.6 0.00 0.00 0.00 97 1021.6
20260902034332 53 53 0.9 3.5 0.00 0.00 0.00 96 1021.5
20260902033332 53 53 0.9 3.5 0.00 0.00 0.00 96 1021.5
20260902032332 53 22 0.9 3.5 0.00 0.00 0.00 95 1021.4
20260902031333 54 9 0.9 4.3 0.00 0.00 0.00 94 1021.4
20260902030332 54 9 0.9 4.3 0.00 0.00 0.00 94 1021.4
20260902025332 54 18 0.9 4.3 0.00 0.00 0.00 94 1021.4
20260902024333 54 40 1.7 4.3 0.00 0.00 0.00 94 1021.4
20260902023333 54 40 1.7 4.3 0.00 0.00 0.00 94 1021.4
20260902022333 54 56 1.7 4.3 0.00 0.00 0.00 94 1021.4
20260902021333 54 66 2.6 3.5 0.00 0.00 0.00 94 1021.4
20260902020332 54 66 2.6 3.5 0.00 0.00 0.00 94 1021.4
20260902015333 54 72 2.6 3.5 0.00 0.00 0.00 94 1021.4
20260902014332 54 81 2.6 3.5 0.00 0.00 0.00 95 1021.3
20260902013333 54 81 2.6 3.5 0.00 0.00 0.00 95 1021.3
20260902012332 54 73 1.7 3.5 0.00 0.00 0.00 94 1021.3
20260902011332 55 80 1.7 3.5 0.00 0.00 0.00 94 1021.3
20260902010333 55 80 1.7 3.5 0.00 0.00 0.00 94 1021.3
20260902005333 55 80 1.7 3.5 0.00 0.00 0.00 93 1021.2
20260902004332 56 85 1.7 3.5 0.00 0.00 0.00 92 1021.2
20260902003332 56 85 1.7 3.5 0.00 0.00 0.00 92 1021.2
20260902002334 56 79 1.7 2.6 0.00 0.00 0.00 91 1021.1
20260902001334 57 77 1.7 2.6 0.00 0.00 0.00 90 1021.1
20260902000334 57 77 1.7 2.6 0.00 0.00 0.00 90 1021.1
20260901235334 57 69 1.7 2.6 0.00 0.00 0.00 88 1021.1
20260901234334 58 50 1.7 3.5 0.00 0.00 0.00 87 1021.2
20260901233334 58 50 1.7 3.5 0.00 0.00 0.00 87 1021.2
20260901232333 58 30 1.7 3.5 0.00 0.00 0.00 85 1021.3
20260901231333 59 27 1.7 3.5 0.00 0.00 0.00 83 1021.3
20260901230334 59 27 1.7 3.5 0.00 0.00 0.00 83 1021.3
20260901225333 59 32 1.7 4.3 0.00 0.00 0.00 82 1021.3
20260901224333 60 45 1.7 4.3 0.00 0.00 0.00 80 1021.2
20260901223334 60 45 1.7 4.3 0.00 0.00 0.00 80 1021.2
20260901222333 60 65 2.6 4.3 0.00 0.00 0.00 79 1020.8
20260901221334 60 70 2.6 4.3 0.00 0.00 0.00 77 1020.8
20260901220334 60 70 2.6 4.3 0.00 0.00 0.00 77 1020.8
20260901215333 61 75 2.6 4.3 0.00 0.00 0.00 76 1020.8
20260901214333 61 83 3.5 4.3 0.00 0.00 0.00 75 1020.7
20260901213334 61 83 3.5 4.3 0.00 0.00 0.00 75 1020.7
20260901212334 62 86 3.5 5.2 0.00 0.00 0.00 73 1020.7
20260901211334 62 90 3.5 5.2 0.00 0.00 0.00 72 1020.7
20260901210333 62 90 3.5 5.2 0.00 0.00 0.00 72 1020.7
20260901205333 63 90 3.5 5.2 0.00 0.00 0.00 71 1020.7
20260901204333 64 90 2.6 5.2 0.00 0.00 0.00 69 1020.7
20260901203334 64 90 2.6 5.2 0.00 0.00 0.00 69 1020.7
20260901202333 64 86 2.6 5.2 0.00 0.00 0.00 68 1020.6
20260901201334 65 86 2.6 5.2 0.00 0.00 0.00 66 1020.6
20260901200335 65 86 2.6 5.2 0.00 0.00 0.00 66 1020.6
20260901195333 66 86 2.6 5.2 0.00 0.00 0.00 65 1020.6
20260901194335 66 90 2.6 5.2 0.00 0.00 0.00 63 1020.5
20260901193333 67 86 2.6 4.3 0.00 0.00 0.00 61 1020.6
20260901192333 68 86 2.6 4.3 0.00 0.00 0.00 61 1020.4
20260901191334 69 86 2.6 4.3 0.00 0.00 0.00 59 1020.3
20260901190334 69 86 2.6 4.3 0.00 0.00 0.00 59 1020.3
20260901185334 71 75 2.6 3.5 0.00 0.00 0.00 56 1020.1
20260901184334 72 58 1.7 3.5 0.00 0.00 0.00 53 1019.9
20260901183334 72 58 1.7 3.5 0.00 0.00 0.00 53 1019.9
20260901182333 74 36 1.7 2.6 0.00 0.00 0.00 50 1019.7
20260901181333 75 21 1.7 2.6 0.00 0.00 0.00 47 1019.6
20260901180333 75 21 1.7 2.6 0.00 0.00 0.00 47 1019.6
20260901175333 76 8 1.7 1.7 0.00 0.00 0.00 45 1019.5
20260901174334 76 0 0.9 1.7 0.00 0.00 0.00 43 1019.5
20260901173334 76 0 0.9 1.7 0.00 0.00 0.00 43 1019.5
20260901172333 77 346 0.9 1.7 0.00 0.00 0.00 41 1019.5
20260901171334 78 315 0.9 1.7 0.00 0.00 0.00 40 1019.5
20260901170339 78 315 0.9 1.7 0.00 0.00 0.00 40 1019.5
20260901165338 78 288 0.9 1.7 0.00 0.00 0.00 39 1019.5
20260901164333 78 256 0.9 2.6 0.00 0.00 0.00 39 1019.5
20260901163335 78 79 2.6 4.3 0.00 0.00 0.00 39 1019.5
20260901162334 78 82 2.6 4.3 0.00 0.00 0.00 36 1019.8
20260901161334 78 86 2.6 4.3 0.00 0.00 0.00 36 1019.9
20260901160334 78 86 2.6 4.3 0.00 0.00 0.00 36 1019.9
20260901155333 79 85 1.7 4.3 0.00 0.00 0.00 36 1020.0
20260901154334 79 72 1.7 4.3 0.00 0.00 0.00 36 1020.0
20260901153333 79 72 1.7 4.3 0.00 0.00 0.00 36 1020.0
20260901152333 79 60 1.7 4.3 0.00 0.00 0.00 36 1020.1
20260901151333 79 45 1.7 4.3 0.00 0.00 0.00 36 1020.2
20260901150334 79 45 1.7 4.3 0.00 0.00 0.00 36 1020.2
20260901145333 79 40 1.7 4.3 0.00 0.00 0.00 36 1020.3
20260901144334 79 40 1.7 5.2 0.00 0.00 0.00 36 1020.5
20260901143333 79 40 1.7 5.2 0.00 0.00 0.00 36 1020.5
20260901142334 79 36 1.7 5.2 0.00 0.00 0.00 36 1020.6
20260901141333 79 23 1.7 5.2 0.00 0.00 0.00 36 1020.7
20260901140333 79 23 1.7 5.2 0.00 0.00 0.00 36 1020.7
20260901135334 78 337 1.7 5.2 0.00 0.00 0.00 37 1020.7
20260901134333 78 302 2.6 5.2 0.00 0.00 0.00 38 1020.7
20260901133332 78 324 1.7 6.1 0.00 0.00 0.00 37 1020.9
20260901132333 78 45 0.9 5.2 0.00 0.00 0.00 37 1021.0
20260901131334 78 108 0.9 5.2 0.00 0.00 0.00 38 1021.0
20260901130333 78 108 0.9 5.2 0.00 0.00 0.00 38 1021.0
20260901125333 77 90 0.9 5.2 0.00 0.00 0.00 39 1021.1
20260901124334 77 346 0.9 5.2 0.00 0.00 0.00 39 1021.2